Weather History for York, PA

Change the Weather History Date:

Friday, January 18, 2013

  Actual Average Record
Temperature  
Mean Temperature 30 °F -  
Max Temperature 34 °F 0 °F 59 °F (2006)
Min Temperature 27 °F - -2 °F (2003)
Degree Days  
Heating Degree Days 34    
Moisture  
Dew Point 14 °F    
Average Humidity 53    
Maximum Humidity 80    
Minimum Humidity 36    
Precipitation  
Precipitation 0.00 in - - ()
Sea Level Pressure  
Sea Level Pressure 30.35 in    
Wind  
Wind Speed 7 mph (WNW)    
Max Wind Speed 17 mph    
Max Gust Speed 30 mph    
Visibility 9 miles    
Events Snow    
Averages and records for this station are not official NWS values.
T = Trace of Precipitation, MM = Missing Value Source: NWS Daily Summary

Daily Weather History Graph

Daily Weather History Graph

Search for Another Location

Airport:

Trip Planner

Search our weather history database for the weather conditions in past years. The results will help you decide how hot, cold, wet, or windy it might be!

Date:

Astronomy

Jan. 18, 2013 Rise Set
Actual Time 7:25 AM EST 5:10 PM EST
Civil Twilight 6:56 AM EST 5:40 PM EST
Nautical Twilight 6:23 AM EST 6:13 PM EST
Astronomical Twilight 5:50 AM EST 6:45 PM EST
Moon 11:03 AM EST (1/18) No Moon Set
Length of Visible Light 10h 43m
Length of Day
9h 44m
Waxing Crescent, 47% of the Moon is Illuminated
Jan 18
Waxing Crescent
Jan 18
First Quarter
Jan 26
Full
Feb 3
Last Quarter
Feb 10
New

Hourly Weather History & Observations

Time (EST) Temp. Windchill Dew Point Humidity Pressure Visibility Wind Dir Wind Speed Gust Speed Precip Events Conditions
12:53 AM 34.0 °F 31.0 °F 26.1 °F 73% 30.07 in 10.0 mi WNW 3.5 mph - N/A   Clear
1:53 AM 34.0 °F 29.8 °F 24.1 °F 67% 30.09 in 10.0 mi WNW 4.6 mph - N/A   Clear
2:53 AM 34.0 °F 28.8 °F 23.0 °F 64% 30.13 in 10.0 mi West 5.8 mph - N/A   Clear
3:53 AM 33.1 °F 26.9 °F 24.1 °F 70% 30.15 in 10.0 mi WNW 6.9 mph - N/A   Mostly Cloudy
4:29 AM 32.0 °F 21.6 °F 26.6 °F 80% 30.16 in 2.0 mi WNW 15.0 mph 29.9 mph 0.00 in Snow Light Snow
4:35 AM 32.0 °F 23.6 °F 26.6 °F 80% 30.17 in 3.0 mi WNW 10.4 mph 19.6 mph 0.00 in Snow Light Snow
4:53 AM 32.0 °F 24.8 °F 25.0 °F 75% 30.20 in 10.0 mi WNW 8.1 mph - 0.00 in   Mostly Cloudy
5:53 AM 30.9 °F 20.7 °F 17.1 °F 57% 30.26 in 10.0 mi NW 13.8 mph 20.7 mph 0.00 in   Mostly Cloudy
6:53 AM 28.9 °F 19.8 °F 12.0 °F 49% 30.31 in 10.0 mi NNW 10.4 mph 19.6 mph N/A   Overcast
7:53 AM 28.0 °F 16.5 °F 10.9 °F 49% 30.36 in 10.0 mi NNW 15.0 mph 20.7 mph N/A   Partly Cloudy
8:53 AM 27.0 °F 14.3 °F 8.1 °F 45% 30.43 in 10.0 mi NNW 17.3 mph 27.6 mph N/A   Partly Cloudy
9:53 AM 27.0 °F 17.3 °F 8.1 °F 45% 30.48 in 10.0 mi NW 10.4 mph 18.4 mph N/A   Clear
10:53 AM 28.0 °F 18.6 °F 6.1 °F 39% 30.49 in 10.0 mi NNW 10.4 mph - N/A   Clear
11:53 AM 28.0 °F 20.8 °F 8.1 °F 43% 30.48 in 10.0 mi NW 6.9 mph - N/A   Clear
12:53 PM 28.9 °F 21.9 °F 7.0 °F 40% 30.46 in 10.0 mi West 6.9 mph - N/A   Clear
1:53 PM 30.0 °F 22.4 °F 6.1 °F 36% 30.47 in 10.0 mi West 8.1 mph - N/A   Clear
2:53 PM 30.0 °F 21.1 °F 6.1 °F 36% 30.47 in 10.0 mi West 10.4 mph - N/A   Clear
3:53 PM 30.9 °F 25.2 °F 9.0 °F 40% 30.47 in 10.0 mi West 5.8 mph - N/A   Clear
4:53 PM 28.9 °F 23.9 °F 10.0 °F 45% 30.48 in 10.0 mi WSW 4.6 mph - N/A   Clear
5:53 PM 28.0 °F - 8.1 °F 43% 30.47 in 10.0 mi Calm Calm - N/A   Clear
6:53 PM 27.0 °F 23.0 °F 9.0 °F 47% 30.47 in 10.0 mi SSE 3.5 mph - N/A   Clear
7:53 PM 27.0 °F - 9.0 °F 47% 30.47 in 10.0 mi Calm Calm - N/A   Clear
8:53 PM 27.0 °F 20.5 °F 10.0 °F 49% 30.45 in 10.0 mi South 5.8 mph - N/A   Clear
10:53 PM 28.0 °F 24.2 °F 10.9 °F 49% 30.41 in 10.0 mi SSW 3.5 mph - N/A   Clear
11:53 PM 30.0 °F 22.4 °F 14.0 °F 51% 30.39 in 10.0 mi SSW 8.1 mph - N/A   Clear